Year,Month,Day,Hour,Minute,Value (Times are PST for temperature in C)
2015,05,19,00,00,15.30
2015,05,19,00,01,15.30
2015,05,19,00,02,15.20
2015,05,19,00,03,15.20
2015,05,19,00,04,15.20
2015,05,19,00,05,15.20
2015,05,19,00,06,15.20
2015,05,19,00,07,15.10
2015,05,19,00,08,15.10
2015,05,19,00,09,15.10
2015,05,19,00,10,15.10
2015,05,19,00,11,15.00
2015,05,19,00,12,15.00
2015,05,19,00,13,15.00
2015,05,19,00,14,15.00
2015,05,19,00,15,15.00
2015,05,19,00,16,15.00
2015,05,19,00,17,15.00
2015,05,19,00,18,15.00
2015,05,19,00,19,15.00
2015,05,19,00,20,15.00
2015,05,19,00,21,15.00
2015,05,19,00,22,15.00
2015,05,19,00,23,15.00
2015,05,19,00,24,15.00
2015,05,19,00,25,15.00
2015,05,19,00,26,15.00
2015,05,19,00,27,15.00
2015,05,19,00,28,15.00
2015,05,19,00,29,15.00
2015,05,19,00,30,15.00
2015,05,19,00,31,15.00
2015,05,19,00,32,15.00
2015,05,19,00,33,15.00
2015,05,19,00,34,15.00
2015,05,19,00,35,15.00
2015,05,19,00,36,15.00
2015,05,19,00,37,15.00
2015,05,19,00,38,15.00
2015,05,19,00,39,15.00
2015,05,19,00,40,15.00
2015,05,19,00,41,15.00
2015,05,19,00,42,15.10
2015,05,19,00,43,15.10
2015,05,19,00,44,15.10
2015,05,19,00,45,15.10
2015,05,19,00,46,15.10
2015,05,19,00,47,15.10
2015,05,19,00,48,15.10
2015,05,19,00,49,15.10
2015,05,19,00,50,15.10
2015,05,19,00,51,15.10
2015,05,19,00,52,15.10
2015,05,19,00,53,15.10
2015,05,19,00,54,15.10
2015,05,19,00,55,15.10
2015,05,19,00,56,15.10
2015,05,19,00,57,15.10
2015,05,19,00,58,15.10
2015,05,19,00,59,15.10
2015,05,19,01,00,15.10
2015,05,19,01,01,15.10
2015,05,19,01,02,15.10
2015,05,19,01,03,15.10
2015,05,19,01,04,15.10
2015,05,19,01,05,15.10
2015,05,19,01,06,15.10
2015,05,19,01,07,15.10
2015,05,19,01,08,15.10
2015,05,19,01,09,15.10
2015,05,19,01,10,15.10
2015,05,19,01,11,15.10
2015,05,19,01,12,15.10
2015,05,19,01,13,15.10
2015,05,19,01,14,15.10
2015,05,19,01,15,15.10
2015,05,19,01,16,15.10
2015,05,19,01,17,15.10
2015,05,19,01,18,15.00
2015,05,19,01,19,15.00
2015,05,19,01,20,15.00
2015,05,19,01,21,15.00
2015,05,19,01,22,15.00
2015,05,19,01,23,14.90
2015,05,19,01,24,14.90
2015,05,19,01,25,14.90
2015,05,19,01,26,14.90
2015,05,19,01,27,14.90
2015,05,19,01,28,14.90
2015,05,19,01,29,14.90
2015,05,19,01,30,14.80
2015,05,19,01,31,14.80
2015,05,19,01,32,14.80
2015,05,19,01,33,14.80
2015,05,19,01,34,14.80
2015,05,19,01,35,14.80
2015,05,19,01,36,14.80
2015,05,19,01,37,14.80
2015,05,19,01,38,14.80
2015,05,19,01,39,14.70
2015,05,19,01,40,14.70
2015,05,19,01,41,14.70
2015,05,19,01,42,14.70
2015,05,19,01,43,14.70
2015,05,19,01,44,14.70
2015,05,19,01,45,14.70
2015,05,19,01,46,14.70
2015,05,19,01,47,14.70
2015,05,19,01,48,14.70
2015,05,19,01,49,14.80
2015,05,19,01,50,14.80
2015,05,19,01,51,14.80
2015,05,19,01,52,14.80
2015,05,19,01,53,14.70
2015,05,19,01,54,14.70
2015,05,19,01,55,14.70
2015,05,19,01,56,14.70
2015,05,19,01,57,14.70
2015,05,19,01,58,14.70
2015,05,19,01,59,14.80
2015,05,19,02,00,14.80
2015,05,19,02,01,14.80
2015,05,19,02,02,14.80
2015,05,19,02,03,14.80
2015,05,19,02,04,14.80
2015,05,19,02,05,14.80
2015,05,19,02,06,14.80
2015,05,19,02,07,14.80
2015,05,19,02,08,14.90
2015,05,19,02,09,14.90
2015,05,19,02,10,14.90
2015,05,19,02,11,14.90
2015,05,19,02,12,14.90
2015,05,19,02,13,14.90
2015,05,19,02,14,14.90
2015,05,19,02,15,14.90
2015,05,19,02,16,14.90
2015,05,19,02,17,14.80
2015,05,19,02,18,14.80
2015,05,19,02,19,14.80
2015,05,19,02,20,14.80
2015,05,19,02,21,14.80
2015,05,19,02,22,14.80
2015,05,19,02,23,14.80
2015,05,19,02,24,14.80
2015,05,19,02,25,14.80
2015,05,19,02,26,14.80
2015,05,19,02,27,14.80
2015,05,19,02,28,14.80
2015,05,19,02,29,14.80
2015,05,19,02,30,14.70
2015,05,19,02,31,14.70
2015,05,19,02,32,14.70
2015,05,19,02,33,14.70
2015,05,19,02,34,14.70
2015,05,19,02,35,14.60
2015,05,19,02,36,14.60
2015,05,19,02,37,14.60
2015,05,19,02,38,14.60
2015,05,19,02,39,14.60
2015,05,19,02,40,14.60
2015,05,19,02,41,14.60
2015,05,19,02,42,14.50
2015,05,19,02,43,14.50
2015,05,19,02,44,14.50
2015,05,19,02,45,14.40
2015,05,19,02,46,14.40
2015,05,19,02,47,14.40
2015,05,19,02,48,14.40
2015,05,19,02,49,14.30
2015,05,19,02,50,14.30
2015,05,19,02,51,14.30
2015,05,19,02,52,14.30
2015,05,19,02,53,14.30
2015,05,19,02,54,14.30
2015,05,19,02,55,14.30
2015,05,19,02,56,14.30
2015,05,19,02,57,14.30
2015,05,19,02,58,14.30
2015,05,19,02,59,14.30
2015,05,19,03,00,14.30
2015,05,19,03,01,14.30
2015,05,19,03,02,14.30
2015,05,19,03,03,14.30
2015,05,19,03,04,14.30
2015,05,19,03,05,14.30
2015,05,19,03,06,14.30
2015,05,19,03,07,14.20
2015,05,19,03,08,14.20
2015,05,19,03,09,14.20
2015,05,19,03,10,14.20
2015,05,19,03,11,14.10
2015,05,19,03,12,14.10
2015,05,19,03,13,14.10
2015,05,19,03,14,14.10
2015,05,19,03,15,14.10
2015,05,19,03,16,14.00
2015,05,19,03,17,14.00
2015,05,19,03,18,14.00
2015,05,19,03,19,14.00
2015,05,19,03,20,14.00
2015,05,19,03,21,14.00
2015,05,19,03,22,14.00
2015,05,19,03,23,14.00
2015,05,19,03,24,14.00
2015,05,19,03,25,14.00
2015,05,19,03,26,14.00
2015,05,19,03,27,14.00
2015,05,19,03,28,14.00
2015,05,19,03,29,14.00
2015,05,19,03,30,14.00
2015,05,19,03,31,13.90
2015,05,19,03,32,13.90
2015,05,19,03,33,13.90
2015,05,19,03,34,13.90
2015,05,19,03,35,13.80
2015,05,19,03,36,13.80
2015,05,19,03,37,13.80
2015,05,19,03,38,13.80
2015,05,19,03,39,13.80
2015,05,19,03,40,13.80
2015,05,19,03,41,13.80
2015,05,19,03,42,13.70
2015,05,19,03,43,13.70
2015,05,19,03,44,13.70
2015,05,19,03,45,13.60
2015,05,19,03,46,13.60
2015,05,19,03,47,13.60
2015,05,19,03,48,13.50
2015,05,19,03,49,13.50
2015,05,19,03,50,13.50
2015,05,19,03,51,13.40
2015,05,19,03,52,13.40
2015,05,19,03,53,13.40
2015,05,19,03,54,13.40
2015,05,19,03,55,13.40
2015,05,19,03,56,13.30
2015,05,19,03,57,13.30
2015,05,19,03,58,13.30
2015,05,19,03,59,13.30
2015,05,19,04,00,13.40
2015,05,19,04,01,13.40
2015,05,19,04,02,13.40
2015,05,19,04,03,13.40
2015,05,19,05,02,13.20
2015,05,19,05,03,13.20
2015,05,19,05,04,13.30
2015,05,19,05,05,13.30
2015,05,19,05,06,13.20
2015,05,19,05,07,13.20
2015,05,19,05,08,13.20
2015,05,19,05,09,13.20
2015,05,19,05,10,13.20
2015,05,19,05,11,13.20
2015,05,19,05,12,13.10
2015,05,19,05,13,13.10
2015,05,19,05,14,13.10
2015,05,19,05,15,13.10
2015,05,19,05,16,13.10
2015,05,19,05,17,13.10
2015,05,19,05,18,13.10
2015,05,19,05,19,13.10
2015,05,19,05,20,13.10
2015,05,19,05,21,13.10
2015,05,19,05,22,13.00
2015,05,19,05,23,13.00
2015,05,19,05,24,13.00
2015,05,19,05,25,12.90
2015,05,19,05,26,12.90
2015,05,19,05,27,12.90
2015,05,19,05,28,12.90
2015,05,19,05,29,12.90
2015,05,19,05,30,12.90
2015,05,19,05,31,12.90
2015,05,19,05,32,12.90
2015,05,19,05,33,12.90
2015,05,19,05,34,12.90
2015,05,19,05,35,12.90
2015,05,19,05,36,12.90
2015,05,19,05,37,12.90
2015,05,19,05,38,12.90
2015,05,19,05,39,12.90
2015,05,19,05,40,12.90
2015,05,19,05,41,12.90
2015,05,19,05,42,12.90
2015,05,19,05,43,12.90
2015,05,19,05,44,12.90
2015,05,19,05,45,12.90
2015,05,19,05,46,12.90
2015,05,19,05,47,12.90
2015,05,19,05,48,12.90
2015,05,19,05,49,12.90
2015,05,19,05,50,12.90
2015,05,19,05,51,12.90
2015,05,19,05,52,12.90
2015,05,19,05,53,12.90
2015,05,19,05,54,12.90
2015,05,19,05,55,12.90
2015,05,19,05,56,12.90
2015,05,19,05,57,12.90
2015,05,19,05,58,12.90
2015,05,19,05,59,12.90
2015,05,19,06,00,12.90
2015,05,19,06,01,12.90
2015,05,19,06,02,12.90
2015,05,19,06,03,12.90
2015,05,19,06,04,12.90
2015,05,19,06,05,12.90
2015,05,19,06,06,12.90
2015,05,19,06,07,12.90
2015,05,19,06,08,12.90
2015,05,19,06,09,12.90
2015,05,19,06,10,12.90
2015,05,19,06,11,12.90
2015,05,19,06,12,12.90
2015,05,19,06,13,13.00
2015,05,19,06,14,13.00
2015,05,19,06,15,13.00
2015,05,19,06,16,13.00
2015,05,19,06,17,13.10
2015,05,19,06,18,13.10
2015,05,19,06,19,13.10
2015,05,19,06,20,13.10
2015,05,19,06,21,13.10
2015,05,19,06,22,13.10
2015,05,19,06,23,13.10
2015,05,19,06,24,13.10
2015,05,19,06,25,13.10
2015,05,19,06,26,13.10
2015,05,19,06,27,13.10
2015,05,19,06,28,13.10
2015,05,19,06,29,13.20
2015,05,19,06,30,13.20
2015,05,19,06,31,13.20
2015,05,19,06,32,13.20
2015,05,19,06,33,13.20
2015,05,19,06,34,13.20
2015,05,19,06,35,13.20
2015,05,19,06,36,13.20
2015,05,19,06,37,13.20
2015,05,19,06,38,13.20
2015,05,19,06,39,13.20
2015,05,19,06,40,13.20
2015,05,19,06,41,13.20
2015,05,19,06,42,13.20
2015,05,19,06,43,13.20
2015,05,19,06,44,13.20
2015,05,19,06,45,13.20
2015,05,19,06,46,13.30
2015,05,19,06,47,13.30
2015,05,19,06,48,13.30
2015,05,19,06,49,13.30
2015,05,19,06,50,13.30
2015,05,19,06,51,13.30
2015,05,19,06,52,13.30
2015,05,19,06,53,13.40
2015,05,19,06,54,13.40
2015,05,19,06,55,13.40
2015,05,19,06,56,13.40
2015,05,19,06,57,13.50
2015,05,19,06,58,13.50
2015,05,19,06,59,13.60
2015,05,19,07,00,13.70
2015,05,19,07,01,13.70
2015,05,19,07,02,13.80
2015,05,19,07,03,13.80
2015,05,19,07,04,13.80
2015,05,19,07,05,13.80
2015,05,19,07,06,13.90
2015,05,19,07,07,13.90
2015,05,19,07,08,13.90
2015,05,19,07,09,13.90
2015,05,19,07,10,14.00
2015,05,19,07,11,14.10
2015,05,19,07,12,14.10
2015,05,19,07,13,14.10
2015,05,19,07,14,14.10
2015,05,19,07,15,14.10
2015,05,19,07,16,14.10
2015,05,19,07,17,14.20
2015,05,19,07,18,14.20
2015,05,19,07,19,14.20
2015,05,19,07,20,14.20
2015,05,19,07,21,14.30
2015,05,19,07,22,14.30
2015,05,19,07,23,14.30
2015,05,19,07,24,14.40
2015,05,19,07,25,14.40
2015,05,19,07,26,14.50
2015,05,19,07,27,14.50
2015,05,19,07,28,14.60
2015,05,19,07,29,14.60
2015,05,19,07,30,14.60
2015,05,19,07,31,14.70
2015,05,19,07,32,14.70
2015,05,19,07,33,14.70
2015,05,19,07,34,14.70
2015,05,19,07,35,14.70
2015,05,19,07,36,14.70
2015,05,19,07,37,14.70
2015,05,19,07,38,14.70
2015,05,19,07,39,14.60
2015,05,19,07,40,14.60
2015,05,19,07,41,14.60
2015,05,19,07,42,14.60
2015,05,19,07,43,14.70
2015,05,19,07,44,14.70
2015,05,19,07,45,14.70
2015,05,19,07,46,14.70
2015,05,19,07,47,14.60
2015,05,19,07,48,14.60
2015,05,19,07,49,14.60
2015,05,19,07,50,14.60
2015,05,19,07,51,14.70
2015,05,19,07,52,14.70
2015,05,19,07,53,14.70
2015,05,19,07,54,14.70
2015,05,19,07,55,14.70
2015,05,19,07,56,14.80
2015,05,19,07,57,14.80
2015,05,19,07,58,14.70
2015,05,19,07,59,14.70
2015,05,19,08,00,14.70
2015,05,19,08,01,14.70
2015,05,19,08,02,14.80
2015,05,19,08,03,14.80
2015,05,19,08,04,14.80
2015,05,19,08,05,14.90
2015,05,19,08,06,14.90
2015,05,19,08,07,14.90
2015,05,19,08,08,15.00
2015,05,19,08,09,15.00
2015,05,19,08,10,15.10
2015,05,19,08,11,15.10
2015,05,19,08,12,15.20
2015,05,19,08,13,15.20
2015,05,19,08,14,15.20
2015,05,19,08,15,15.30
2015,05,19,08,16,15.30
2015,05,19,08,17,15.30
2015,05,19,08,18,15.30
2015,05,19,08,19,15.30
2015,05,19,08,20,15.30
2015,05,19,08,21,15.40
2015,05,19,08,22,15.50
2015,05,19,08,23,15.60
2015,05,19,08,24,15.60
2015,05,19,08,25,15.70
2015,05,19,08,26,15.70
2015,05,19,08,27,15.70
2015,05,19,08,28,15.70
2015,05,19,08,29,15.70
2015,05,19,08,30,15.70
2015,05,19,08,31,15.70
2015,05,19,08,32,15.70
2015,05,19,08,33,15.70
2015,05,19,08,34,15.70
2015,05,19,08,35,15.70
2015,05,19,08,36,15.60
2015,05,19,08,37,15.60
2015,05,19,08,38,15.60
2015,05,19,08,39,15.50
2015,05,19,08,40,15.50
2015,05,19,08,41,15.40
2015,05,19,08,42,15.40
2015,05,19,08,43,15.30
2015,05,19,08,44,15.20
2015,05,19,08,45,15.10
2015,05,19,08,46,15.10
2015,05,19,08,47,15.10
2015,05,19,08,48,15.10
2015,05,19,08,49,15.10
2015,05,19,08,50,15.10
2015,05,19,08,51,15.10
2015,05,19,08,52,15.10
2015,05,19,08,53,15.10
2015,05,19,08,54,15.10
2015,05,19,08,55,15.20
2015,05,19,08,56,15.30
2015,05,19,08,57,15.40
2015,05,19,08,58,15.40
2015,05,19,08,59,15.40
2015,05,19,09,00,15.30
2015,05,19,09,01,15.30
2015,05,19,09,02,15.40
2015,05,19,09,03,15.40
2015,05,19,09,04,15.40
2015,05,19,09,05,15.40
2015,05,19,09,06,15.40
2015,05,19,09,07,15.40
2015,05,19,09,08,15.30
2015,05,19,09,09,15.30
2015,05,19,09,10,15.20
2015,05,19,09,11,15.10
2015,05,19,09,12,15.10
2015,05,19,09,13,15.10
2015,05,19,09,14,15.00
2015,05,19,09,15,15.00
2015,05,19,09,16,15.00
2015,05,19,09,17,15.10
2015,05,19,09,18,15.10
2015,05,19,09,19,15.20
2015,05,19,09,20,15.30
2015,05,19,09,21,15.30
2015,05,19,09,22,15.40
2015,05,19,09,23,15.40
2015,05,19,09,24,15.50
2015,05,19,09,25,15.50
2015,05,19,09,26,15.50
2015,05,19,09,27,15.50
2015,05,19,09,28,15.40
2015,05,19,09,29,15.40
2015,05,19,09,30,15.40
2015,05,19,09,31,15.40
2015,05,19,09,32,15.40
2015,05,19,09,33,15.50
2015,05,19,09,34,15.40
2015,05,19,09,35,15.40
2015,05,19,09,36,15.40
2015,05,19,09,37,15.30
2015,05,19,09,38,15.40
2015,05,19,09,39,15.50
2015,05,19,09,40,15.50
2015,05,19,09,41,15.60
2015,05,19,09,42,15.70
2015,05,19,09,43,15.80
2015,05,19,09,44,15.80
2015,05,19,09,45,15.90
2015,05,19,09,46,16.10
2015,05,19,09,47,16.20
2015,05,19,09,48,16.30
2015,05,19,09,49,16.40
2015,05,19,09,50,16.50
2015,05,19,09,51,16.60
2015,05,19,09,52,16.60
2015,05,19,09,53,16.60
2015,05,19,09,54,16.70
2015,05,19,09,55,16.80
2015,05,19,09,56,16.90
2015,05,19,09,57,16.90
2015,05,19,09,58,17.00
2015,05,19,09,59,16.90
2015,05,19,10,00,16.80
2015,05,19,10,01,16.80
2015,05,19,10,02,16.70
2015,05,19,10,03,16.70
2015,05,19,10,04,16.60
2015,05,19,10,05,16.60
2015,05,19,10,06,16.50
2015,05,19,10,07,16.50
2015,05,19,10,08,16.50
2015,05,19,10,09,16.50
2015,05,19,10,10,16.50
2015,05,19,10,11,16.40
2015,05,19,10,12,16.30
2015,05,19,10,13,16.30
2015,05,19,10,14,16.30
2015,05,19,10,15,16.30
2015,05,19,10,16,16.30
2015,05,19,10,17,16.30
2015,05,19,10,18,16.40
2015,05,19,10,19,16.40
2015,05,19,10,20,16.50
2015,05,19,10,21,16.60
2015,05,19,10,22,16.80
2015,05,19,10,23,16.80
2015,05,19,10,24,16.90
2015,05,19,10,25,17.00
2015,05,19,10,26,17.10
2015,05,19,10,27,17.20
2015,05,19,10,28,17.30
2015,05,19,10,29,17.50
2015,05,19,10,30,17.70
2015,05,19,10,31,17.90
2015,05,19,10,32,18.10
2015,05,19,10,33,18.10
2015,05,19,10,34,18.20
2015,05,19,10,35,18.30
2015,05,19,10,36,18.50
2015,05,19,10,37,18.60
2015,05,19,10,38,18.80
2015,05,19,10,39,18.90
2015,05,19,10,40,19.00
2015,05,19,10,41,19.10
2015,05,19,10,42,19.10
2015,05,19,10,43,19.00
2015,05,19,10,44,18.80
2015,05,19,10,45,18.70
2015,05,19,10,46,18.60
2015,05,19,10,47,18.50
2015,05,19,10,48,18.40
2015,05,19,10,49,18.40
2015,05,19,10,50,18.40
2015,05,19,10,51,18.40
2015,05,19,10,52,18.40
2015,05,19,10,53,18.30
2015,05,19,10,54,18.30
2015,05,19,10,55,18.30
2015,05,19,10,56,18.30
2015,05,19,10,57,18.30
2015,05,19,10,58,18.30
2015,05,19,10,59,18.30
2015,05,19,11,00,18.40
2015,05,19,11,01,18.50
2015,05,19,11,02,18.50
2015,05,19,11,03,18.40
2015,05,19,11,04,18.40
2015,05,19,11,05,18.40
2015,05,19,11,06,18.40
2015,05,19,11,07,18.30
2015,05,19,11,08,18.40
2015,05,19,11,09,18.40
2015,05,19,11,10,18.50
2015,05,19,11,11,18.60
2015,05,19,11,12,18.70
2015,05,19,11,13,18.70
2015,05,19,11,14,18.70
2015,05,19,11,15,18.70
2015,05,19,11,16,18.70
2015,05,19,11,17,18.70
2015,05,19,11,18,18.80
2015,05,19,11,19,18.80
2015,05,19,11,20,18.90
2015,05,19,11,21,18.90
2015,05,19,11,22,18.90
2015,05,19,11,23,18.90
2015,05,19,11,24,18.90
2015,05,19,11,25,19.00
2015,05,19,11,26,19.10
2015,05,19,11,27,19.20
2015,05,19,11,28,19.20
2015,05,19,11,29,19.40
2015,05,19,11,30,19.40
2015,05,19,11,31,19.40
2015,05,19,11,32,19.50
2015,05,19,11,33,19.50
2015,05,19,11,34,19.60
2015,05,19,11,35,19.60
2015,05,19,11,36,19.60
2015,05,19,11,37,19.60
2015,05,19,11,38,19.60
2015,05,19,11,39,19.70
2015,05,19,11,40,19.70
2015,05,19,11,41,19.60
2015,05,19,11,42,19.60
2015,05,19,11,43,19.60
2015,05,19,11,44,19.50
2015,05,19,11,45,19.50
2015,05,19,11,46,19.60
2015,05,19,11,47,19.70
2015,05,19,11,48,19.70
2015,05,19,11,49,19.80
2015,05,19,11,50,20.00
2015,05,19,11,51,20.10
2015,05,19,11,52,20.10
2015,05,19,11,53,20.00
2015,05,19,11,54,20.00
2015,05,19,11,55,19.90
2015,05,19,11,56,19.90
2015,05,19,11,57,19.80
2015,05,19,11,58,19.90
2015,05,19,11,59,19.90
2015,05,19,12,00,19.90
2015,05,19,12,01,19.90
2015,05,19,12,02,19.90
2015,05,19,12,03,19.80
2015,05,19,12,04,19.80
2015,05,19,12,05,19.70
2015,05,19,12,06,19.80
2015,05,19,12,07,19.80
2015,05,19,12,08,19.70
2015,05,19,12,09,19.70
2015,05,19,12,10,19.80
2015,05,19,12,11,19.80
2015,05,19,12,12,19.80
2015,05,19,12,13,19.80
2015,05,19,12,14,19.90
2015,05,19,12,15,20.00
2015,05,19,12,16,20.10
2015,05,19,12,17,20.20
2015,05,19,12,18,20.30
2015,05,19,12,19,20.50
2015,05,19,12,20,20.60
2015,05,19,12,21,20.60
2015,05,19,12,22,20.60
2015,05,19,12,23,20.70
2015,05,19,12,24,20.70
2015,05,19,12,25,20.80
2015,05,19,12,26,20.70
2015,05,19,12,27,20.70
2015,05,19,12,28,20.70
2015,05,19,12,29,20.80
2015,05,19,12,30,20.80
2015,05,19,12,31,20.80
2015,05,19,12,32,20.90
2015,05,19,12,33,21.00
2015,05,19,12,34,21.10
2015,05,19,12,35,21.20
2015,05,19,12,36,21.20
2015,05,19,12,37,21.20
2015,05,19,12,38,21.20
2015,05,19,12,39,21.20
2015,05,19,12,40,21.30
2015,05,19,12,41,21.40
2015,05,19,12,42,21.50
2015,05,19,12,43,21.70
2015,05,19,12,44,21.80
2015,05,19,12,45,21.90
2015,05,19,12,46,21.90
2015,05,19,12,47,22.00
2015,05,19,12,48,22.10
2015,05,19,12,49,22.10
2015,05,19,12,50,22.00
2015,05,19,12,51,22.10
2015,05,19,12,52,22.10
2015,05,19,12,53,22.20
2015,05,19,12,54,22.20
2015,05,19,12,55,22.10
2015,05,19,12,56,22.00
2015,05,19,12,57,21.90
2015,05,19,12,58,22.00
2015,05,19,12,59,22.00
2015,05,19,13,00,22.10
2015,05,19,13,01,22.10
2015,05,19,13,02,22.10
2015,05,19,13,03,22.10
2015,05,19,13,04,22.20
2015,05,19,13,05,22.20
2015,05,19,13,06,22.20
2015,05,19,13,07,22.20
2015,05,19,13,08,22.20
2015,05,19,13,09,22.20
2015,05,19,13,10,22.20
2015,05,19,13,11,22.20
2015,05,19,13,12,22.30
2015,05,19,13,13,22.40
2015,05,19,13,14,22.40
2015,05,19,13,15,22.50
2015,05,19,13,16,22.60
2015,05,19,13,17,22.70
2015,05,19,13,18,22.80
2015,05,19,13,19,22.90
2015,05,19,13,20,22.80
2015,05,19,13,21,22.70
2015,05,19,13,22,22.60
2015,05,19,13,23,22.60
2015,05,19,13,24,22.70
2015,05,19,13,25,22.80
2015,05,19,13,26,22.80
2015,05,19,13,27,22.80
2015,05,19,13,28,22.80
2015,05,19,13,29,22.70
2015,05,19,13,30,22.60
2015,05,19,13,31,22.50
2015,05,19,13,32,22.50
2015,05,19,13,33,22.60
2015,05,19,13,34,22.70
2015,05,19,13,35,22.90
2015,05,19,13,36,22.90
2015,05,19,13,37,22.90
2015,05,19,13,38,22.90
2015,05,19,13,39,22.80
2015,05,19,13,40,22.80
2015,05,19,13,41,22.80
2015,05,19,13,42,22.80
2015,05,19,13,43,22.90
2015,05,19,13,44,22.90
2015,05,19,13,45,23.00
2015,05,19,13,46,23.10
2015,05,19,13,47,23.10
2015,05,19,13,48,23.10
2015,05,19,13,49,23.10
2015,05,19,13,50,23.10
2015,05,19,13,51,23.00
2015,05,19,13,52,23.00
2015,05,19,13,53,22.90
2015,05,19,13,54,22.90
2015,05,19,13,55,23.00
2015,05,19,13,56,23.10
2015,05,19,13,57,23.10
2015,05,19,13,58,23.10
2015,05,19,13,59,23.20
2015,05,19,14,00,23.20
2015,05,19,14,01,23.30
2015,05,19,14,02,23.30
2015,05,19,14,03,23.30
2015,05,19,14,04,23.30
2015,05,19,14,05,23.30
2015,05,19,14,06,23.30
2015,05,19,14,07,23.30
2015,05,19,14,08,23.30
2015,05,19,14,09,23.30
2015,05,19,14,10,23.30
2015,05,19,14,11,23.40
2015,05,19,14,12,23.40
2015,05,19,14,13,23.40
2015,05,19,14,14,23.40
2015,05,19,14,15,23.40
2015,05,19,14,16,23.50
2015,05,19,14,17,23.50
2015,05,19,14,18,23.60
2015,05,19,14,19,23.70
2015,05,19,14,20,23.80
2015,05,19,14,21,23.90
2015,05,19,14,22,23.90
2015,05,19,14,23,24.00
2015,05,19,14,24,24.00
2015,05,19,14,25,24.10
2015,05,19,14,26,24.00
2015,05,19,14,27,24.00
2015,05,19,14,28,24.00
2015,05,19,14,29,24.00
2015,05,19,14,30,24.00
2015,05,19,14,31,24.00
2015,05,19,14,32,24.10
2015,05,19,14,33,24.30
2015,05,19,14,34,24.40
2015,05,19,14,35,24.50
2015,05,19,14,36,24.50
2015,05,19,14,37,24.50
2015,05,19,14,38,24.40
2015,05,19,14,39,24.40
2015,05,19,14,40,24.40
2015,05,19,14,41,24.30
2015,05,19,14,42,24.30
2015,05,19,14,43,24.30
2015,05,19,14,44,24.30
2015,05,19,14,45,24.30
2015,05,19,14,46,24.30
2015,05,19,14,47,24.30
2015,05,19,14,48,24.30
2015,05,19,14,49,24.40
2015,05,19,14,50,24.50
2015,05,19,14,51,24.50
2015,05,19,14,52,24.50
2015,05,19,14,53,24.50
2015,05,19,14,54,24.40
2015,05,19,14,55,24.30
2015,05,19,14,56,24.40
2015,05,19,14,57,24.40
2015,05,19,14,58,24.40
2015,05,19,14,59,24.40
2015,05,19,15,00,24.30
2015,05,19,15,01,24.30
2015,05,19,15,02,24.30
2015,05,19,15,03,24.30
2015,05,19,15,04,24.30
2015,05,19,15,05,24.30
2015,05,19,15,06,24.30
2015,05,19,15,07,24.30
2015,05,19,15,08,24.30
2015,05,19,15,09,24.30
2015,05,19,15,10,24.40
2015,05,19,15,11,24.50
2015,05,19,15,12,24.50
2015,05,19,15,13,24.60
2015,05,19,15,14,24.60
2015,05,19,15,15,24.70
2015,05,19,15,16,24.70
2015,05,19,15,17,24.70
2015,05,19,15,18,24.80
2015,05,19,15,19,24.80
2015,05,19,15,20,24.90
2015,05,19,15,21,24.90
2015,05,19,15,22,25.00
2015,05,19,15,23,25.10
2015,05,19,15,24,25.10
2015,05,19,15,25,25.10
2015,05,19,15,26,25.10
2015,05,19,15,27,25.10
2015,05,19,15,28,25.00
2015,05,19,15,29,25.00
2015,05,19,15,30,25.10
2015,05,19,15,31,25.10
2015,05,19,15,32,25.10
2015,05,19,15,33,25.20
2015,05,19,15,34,25.20
2015,05,19,15,35,25.10
2015,05,19,15,36,25.10
2015,05,19,15,37,25.00
2015,05,19,15,38,25.00
2015,05,19,15,39,24.90
2015,05,19,15,40,24.90
2015,05,19,15,41,24.90
2015,05,19,15,42,24.80
2015,05,19,15,43,24.80
2015,05,19,15,44,24.70
2015,05,19,15,45,24.50
2015,05,19,15,46,24.40
2015,05,19,15,47,24.30
2015,05,19,15,48,24.40
2015,05,19,15,49,24.50
2015,05,19,15,50,24.50
2015,05,19,15,51,24.50
2015,05,19,15,52,24.50
2015,05,19,15,53,24.40
2015,05,19,15,54,24.40
2015,05,19,15,55,24.40
2015,05,19,15,56,24.50
2015,05,19,15,57,24.60
2015,05,19,15,58,24.60
2015,05,19,15,59,24.50
2015,05,19,16,00,24.40
2015,05,19,16,01,24.40
2015,05,19,16,02,24.40
2015,05,19,16,03,24.40
2015,05,19,16,04,24.50
2015,05,19,16,05,24.40
2015,05,19,16,06,24.40
2015,05,19,16,07,24.40
2015,05,19,16,08,24.30
2015,05,19,16,09,24.30
2015,05,19,16,10,24.30
2015,05,19,16,11,24.30
2015,05,19,16,12,24.30
2015,05,19,16,13,24.30
2015,05,19,16,14,24.40
2015,05,19,16,15,24.50
2015,05,19,16,16,24.60
2015,05,19,16,17,24.60
2015,05,19,16,18,24.80
2015,05,19,16,19,24.80
2015,05,19,16,20,24.90
2015,05,19,16,21,24.90
2015,05,19,16,22,24.90
2015,05,19,16,23,24.90
2015,05,19,16,24,24.90
2015,05,19,16,25,24.90
2015,05,19,16,26,24.90
2015,05,19,16,27,24.90
2015,05,19,16,28,24.90
2015,05,19,16,29,24.90
2015,05,19,16,30,24.80
2015,05,19,16,31,24.90
2015,05,19,16,32,25.00
2015,05,19,16,33,25.10
2015,05,19,16,34,25.00
2015,05,19,16,35,25.10
2015,05,19,16,36,25.10
2015,05,19,16,37,25.10
2015,05,19,16,38,25.00
2015,05,19,16,39,25.00
2015,05,19,16,40,25.00
2015,05,19,16,41,25.10
2015,05,19,16,42,25.10
2015,05,19,16,43,25.10
2015,05,19,16,44,25.10
2015,05,19,16,45,25.10
2015,05,19,16,46,25.10
2015,05,19,16,47,25.10
2015,05,19,16,48,25.10
2015,05,19,16,49,25.10
2015,05,19,16,50,25.10
2015,05,19,16,51,25.20
2015,05,19,16,52,25.20
2015,05,19,16,53,25.30
2015,05,19,16,54,25.30
2015,05,19,16,55,25.30
2015,05,19,16,56,25.40
2015,05,19,16,57,25.40
2015,05,19,16,58,25.50
2015,05,19,16,59,25.50
2015,05,19,17,00,25.60
2015,05,19,17,01,25.60
2015,05,19,17,02,25.60
2015,05,19,17,03,25.60
2015,05,19,17,04,25.60
2015,05,19,17,05,25.60
2015,05,19,17,06,25.60
2015,05,19,17,07,25.50
2015,05,19,17,08,25.50
2015,05,19,17,09,25.40
2015,05,19,17,10,25.40
2015,05,19,17,11,25.50
2015,05,19,17,12,25.50
2015,05,19,17,13,25.60
2015,05,19,17,14,25.60
2015,05,19,17,15,25.60
2015,05,19,17,16,25.50
2015,05,19,17,17,25.50
2015,05,19,17,18,25.50
2015,05,19,17,19,25.50
2015,05,19,17,20,25.50
2015,05,19,17,21,25.50
2015,05,19,17,22,25.50
2015,05,19,17,23,25.50
2015,05,19,17,24,25.60
2015,05,19,17,25,25.60
2015,05,19,17,26,25.60
2015,05,19,17,27,25.70
2015,05,19,17,28,25.70
2015,05,19,17,29,25.70
2015,05,19,17,30,25.70
2015,05,19,17,31,25.70
2015,05,19,17,32,25.80
2015,05,19,17,33,25.80
2015,05,19,17,34,25.80
2015,05,19,17,35,25.80
2015,05,19,17,36,25.90
2015,05,19,17,37,25.90
2015,05,19,17,38,25.90
2015,05,19,17,39,25.90
2015,05,19,17,40,25.90
2015,05,19,17,41,25.90
2015,05,19,17,42,26.00
2015,05,19,17,43,26.00
2015,05,19,17,44,26.00
2015,05,19,17,45,26.00
2015,05,19,17,46,26.00
2015,05,19,17,47,26.00
2015,05,19,17,48,25.90
2015,05,19,17,49,25.80
2015,05,19,17,50,25.80
2015,05,19,17,51,25.80
2015,05,19,17,52,25.80
2015,05,19,17,53,25.70
2015,05,19,17,54,25.70
2015,05,19,17,55,25.70
2015,05,19,17,56,25.70
2015,05,19,17,57,25.80
2015,05,19,17,58,25.80
2015,05,19,17,59,25.90
2015,05,19,18,00,25.90
2015,05,19,18,01,25.90
2015,05,19,18,02,25.90
2015,05,19,18,03,25.90
2015,05,19,18,04,25.90
2015,05,19,18,05,25.90
2015,05,19,18,06,25.90
2015,05,19,18,07,25.90
2015,05,19,18,08,25.90
2015,05,19,18,09,25.90
2015,05,19,18,10,25.90
2015,05,19,18,11,26.00
2015,05,19,18,12,26.10
2015,05,19,18,13,26.10
2015,05,19,18,14,26.10
2015,05,19,18,15,26.10
2015,05,19,18,16,26.00
2015,05,19,18,17,25.90